Home   Weather   Fullerton   Past weeks

Flag for USA Past Weather in Fullerton, California, USA — Yesterday and Last 2 Weeks

Now
60 °F

Partly sunny.


Feels Like: 60 °F
Forecast: 50 / 59 °F
Wind: 5 mph from Northwest

Location: Fullerton Municipal Airport

Current Time: Feb 19, 2017 at 3:16:12 pm

Latest Report: Feb 19, 2017 at 1:53 pm


Visibility: 10 mi

Pressure: 29.98 "Hg

Humidity: 80%

Dew Point: 54 °F

Location of FullertonLocation

Past Weather in Fullerton — Graph

°F

Fullerton Temperature Yesterday

Maximum temperature yesterday: 60 °F (at 1:53 pm)
Minimum temperature yesterday: 53 °F (at 12:53 am)
Average temperature yesterday: 56 °F

High & Low Weather Summary for the Past Weeks

 TemperatureHumidityPressure
High82 °F (Feb 15, 1:53 pm)100% (Feb 6, 4:12 am)30.19 "Hg (Feb 6, 4:12 am)
Low48 °F (Feb 12, 5:53 am)20% (Feb 15, 12:53 pm)29.45 "Hg (Feb 17, 4:53 pm)
Average59 °F84%29.97 "Hg
* Reported Feb 4 1:53 pm — Feb 19 1:53 pm, Fullerton, Weather by CustomWeather, © 2017

Note: Actual official high and low records may vary slightly from our data, if they occured in-between our weather recording intervals... More about our weather records

Advertising

Fullerton Weather History for the Previous 24 Hours

Scroll right to see more
 ConditionsComfort  
Time TempWeatherWind HumidityBarometerVisibility
1:53 pm
Sun, Feb 19
60 °FPartly sunny.5 mph80%29.98 "Hg10 mi
12:53 pm58 °FLight rain. Mostly cloudy.5 mph87%29.97 "Hg9 mi
11:53 am57 °FPartly sunny.No wind87%29.97 "Hg7 mi
10:53 am58 °FPartly sunny.No wind81%29.97 "Hg7 mi
9:53 am58 °FMostly cloudy.7 mph75%29.95 "Hg10 mi
8:53 am57 °FOvercast.No wind78%29.92 "Hg10 mi
7:53 am56 °FOvercast.No wind81%29.89 "Hg10 mi
6:53 am56 °FOvercast.5 mph84%29.85 "Hg10 mi
6:06 am55 °FOvercast.5 mph87%29.84 "Hg10 mi
5:53 am55 °FOvercast.5 mph90%29.83 "Hg10 mi
4:53 am54 °FOvercast.3 mph93%29.81 "Hg10 mi
4:37 am54 °FPassing clouds.3 mph93%29.81 "Hg10 mi
3:53 am53 °FMostly cloudy.6 mph96%29.79 "Hg10 mi
3:39 am53 °FPassing clouds.8 mph93%29.79 "Hg10 mi
2:53 am52 °FClear.5 mph93%29.78 "Hg10 mi
1:53 am53 °FClear.3 mph93%29.75 "Hg10 mi
12:53 am55 °FPassing clouds.3 mph87%29.75 "Hg10 mi
12:02 am54 °FOvercast.5 mph93%29.75 "Hg10 mi
11:37 pm
Sat, Feb 18
54 °FPassing clouds.No wind90%29.74 "Hg10 mi
10:53 pm54 °FClear.No wind90%29.74 "Hg10 mi
9:53 pm54 °FClear.No wind90%29.72 "Hg10 mi
8:53 pm55 °FPassing clouds.No wind90%29.70 "Hg10 mi
7:53 pm56 °FPassing clouds.No wind87%29.65 "Hg10 mi
6:53 pm57 °FPassing clouds.No wind81%29.63 "Hg10 mi
5:53 pm58 °FPassing clouds.5 mph81%29.60 "Hg10 mi
5:00 pm59 °FCloudy.6 mph81%29.59 "Hg10 mi
3:53 pm60 °FPartly sunny.7 mph78%29.57 "Hg10 mi
3:00 pm60 °FPartly sunny.5 mph72%29.57 "Hg10 mi
Weather by CustomWeather, © 2017

See weather overviewHow to use our weather pages